星链-35396(STARLINK-35396)

导读 | 豆包AI

STARLINK-35396是美国于2025年9月29日发射的星链计划卫星,星链是SpaceX打造的全球卫星互联网星座,旨在为全球提供低延迟、高速率的宽带互联网覆盖,尤其服务偏远地区与网络基础设施薄弱区域。该卫星是星链星座扩容的组成部分,依托近地轨道部署,承担星链网络的通信节点功能,推进星座组网进程。

基本信息
目录编号:
65828
目录名称:
STARLINK-35396
国际标识:
2025-221F
轨道中心:
EARTH
卫星名称:
星链-35396
卫星全名:
星链-35396(STARLINK-35396)
卫星状态:
在轨 (已飞行212 天)
发射日期:
2025-09-29 UTC
国别 :
美国 (US)
星等 :
--
轨道信息
数据来源 国际轨道数据
星历时间: 2026-04-28T22:13:38+0800
17小时前
查看轨道信息
半长轴: 6853.346km
偏心率: 0.0001147
轨道倾角: 53.161°
近地点辐角 87.670°
升交点赤经 216.557°
平近点角 272.443°
近地点: 474.422km
远地点: 475.996km
周期: 94.105分钟
每日圈数: 15.302023
详细信息
固有亮度:
5
最大亮度:
2.5
卫星平台:
Starlink V1.0
覆盖范围:
全球
运营商:
太空探索技术公司
运营商所在国:
美国
制造商(研发单位):
太空探索技术公司
制造商所在国:
美国
使用方式:
暂无
卫星简介
Starlink 计划是 SpaceX 推出的全球卫星互联网项目,通过发射低轨道卫星,为全球尤其是偏远地区提供高速、低延迟的互联网服务。自 2019 年起,Starlink 已部署数千颗卫星,旨在缩小全球数字鸿沟,推动互联网普及。该项目还为军事、航空等行业提供通信支持,带来广泛经济效益。
2D轨道图
3D轨道图
轨道高度分析图
轨道倾角分析图
轨道综合分析图
查看轨道综合分析图